This is the latest recevied weather packets stored in our database for station/object KD4EG. If no packets are shown the sender has not sent any weather packets the latest 10 day(s).
| Time | Temp. | Humidity | Pressure | Rain* | Wind** | Luminosity | Snow |
|---|---|---|---|---|---|---|---|
| 1777496860 | 17.22° C | 99% | 1010 hPa | 0 mm | - | 81 W/m² | - |
| 1777496557 | 17.22° C | 99% | 1009.5 hPa | 0 mm | - | 58 W/m² | - |
| 1777496253 | 17.22° C | 99% | 1009.8 hPa | 0 mm | - | 97 W/m² | - |
| 1777495949 | 17.22° C | 99% | 1009.7 hPa | 0 mm | - | 162 W/m² | - |
| 1777495645 | 17.22° C | 99% | 1009.8 hPa | 0 mm | - | 181 W/m² | - |
| 1777495341 | 17.22° C | 99% | 1009.6 hPa | 0 mm | - | 115 W/m² | - |
| 1777495038 | 16.67° C | 99% | 1009.8 hPa | 0 mm | - | 47 W/m² | - |
| 1777494736 | 16.67° C | 99% | 1009.9 hPa | 0 mm | - | 42 W/m² | - |
| 1777494433 | 17.22° C | 99% | 1010.3 hPa | 0 mm | - | 52 W/m² | - |
| 1777494129 | 17.22° C | 99% | 1010.3 hPa | 0 mm | - | 131 W/m² | - |
| 1777493827 | 17.22° C | 99% | 1010.3 hPa | 0 mm | - | 59 W/m² | - |
| 1777493525 | 17.22° C | 99% | 1010.3 hPa | 0 mm | - | 51 W/m² | - |
| 1777493222 | 17.22° C | 99% | 1010.6 hPa | 0 mm | - | 43 W/m² | - |
| 1777492918 | 16.67° C | 99% | 1010.8 hPa | 0 mm | - | 127 W/m² | - |
| 1777492615 | 17.22° C | 99% | 1011 hPa | 0 mm | - | 121 W/m² | - |
| 1777492310 | 17.22° C | 99% | 1010.9 hPa | 0 mm | - | 168 W/m² | - |
| 1777492007 | 17.22° C | 99% | 1010.7 hPa | 0 mm | - | 118 W/m² | - |
| 1777491704 | 17.78° C | 99% | 1010.9 hPa | 0 mm | - | 137 W/m² | - |
| 1777491402 | 17.78° C | 99% | 1010.9 hPa | 0 mm | - | 217 W/m² | - |
| 1777491098 | 17.22° C | 99% | 1011.2 hPa | 0 mm | - | 439 W/m² | - |
| 1777490794 | 17.22° C | 99% | 1011.1 hPa | 0 mm | - | 246 W/m² | - |
| 1777490491 | 16.67° C | 99% | 1011.6 hPa | 0 mm | - | 136 W/m² | - |
| 1777490187 | 16.67° C | 99% | 1011.6 hPa | 0 mm | - | 171 W/m² | - |
| 1777489884 | 16.67° C | 99% | 1011.7 hPa | 3.05 mm | - | 140 W/m² | - |
| 1777489582 | 16.11° C | 99% | 1012 hPa | 4.32 mm | - | 108 W/m² | - |
* Rain latest hour (hover to see other rain measurements)
** Current wind speed in m/s (hover to see current wind gust speed)